Weather Roundup
Issued by NWS

Home | Current Version | Previous Version | Graphics & Text | Print | Product List | Glossary Off
Versions: 1 2 3 4 5 6 7 8 9 10 11 12 13 14 15 16 17 18 19 20 21 22 23 24 25 26 27 28 29 30 31 32 33 34 35 36 37 38 39 40 41 42 43 44 45 46 47 48 49 50

242
NZUS93 KARX 250859
HRRWXR

CURRENT HOURLY OBSERVATIONS ACROSS
MUCH OF THE UPPER MISSISSIPPI VALLEY
NATIONAL WEATHER SERVICE LA CROSSE WI
400 AM CDT WED MAY 25 2016


...SOUTHEAST MINNESOTA...


CITY           SKY/WX    TMP DP  RH WIND       PRES   REMARKS
ROCHESTER      CLOUDY    62  59  90 E8        29.91F
ROCHESTER/MAYO FAIR      66  58  75 E8        29.92F
WINONA         CLOUDY    61  59  94 CALM      29.93F
AUSTIN         CLOUDY    63  57  82 E6        29.89F
ALBERT LEA     CLOUDY    64  57  77 SE6       29.88F
DODGE CENTER   CLOUDY    63  55  77 E8        29.90F
PRESTON        CLOUDY    64  57  79 E5        29.92F
OWATONNA       CLOUDY    66  57  72 SE7       29.88F
FARIBAULT      NOT AVBL
$$

...ELSEWHERE IN MINNESOTA...


CITY           SKY/WX    TMP DP  RH WIND       PRES   REMARKS
MINNEAPOLIS    CLOUDY    67  56  67 E6        29.90F
INTNL FALLS    CLEAR     46  45  96 SE3       29.97S
DULUTH         FOG       50  49  96 E10       30.02R VSB 1/2
RED WING       CLOUDY    61  55  82 E5        29.91F
REDWOOD FALLS  CLOUDY    66  59  78 E7        29.83F
MANKATO        CLOUDY    66  55  68 SE9       29.87F
WORTHINGTON    NOT AVBL
FAIRMONT       CLOUDY    64  48  55 SE8       29.85F
$$

...SOUTHWEST WISCONSIN...


CITY           SKY/WX    TMP DP  RH WIND       PRES   REMARKS
LA CROSSE      CLOUDY    61  57  87 SE9       29.93F
PRAIRIE DU CHI CLOUDY    61  59  92 CALM      29.93F
BOSCOBEL       CLOUDY    59  58  96 NE3       29.94F FOG
LONE ROCK      NOT AVBL
PLATTEVILLE    PTCLDY    67  62  86 S6        29.95F
FORT MC COY    PTCLDY    50  49  97 CALM      29.97F
CAMP DOUGLAS   FOG       50  50 100 N1        29.97S VSB 1
MAUSTON-NEW LI CLOUDY    54  53  99 CALM      29.97S
VIROQUA        FAIR      64  58  80 SE7       29.97F
WIS DELLS      CLEAR     57  55  92 CALM      29.97S
$$

...ELSEWHERE IN WISCONSIN...


CITY           SKY/WX    TMP DP  RH WIND       PRES   REMARKS
MILWAUKEE      PTCLDY    63  54  72 CALM      29.97S
MADISON        CLEAR     61  59  93 CALM      29.96F
GREEN BAY      CLOUDY    60  57  89 NE13      29.99R
EAU CLAIRE     NOT AVBL
BLACK RVR FLS  FAIR      50  50 100 CALM      29.97S
MEDFORD        CLOUDY    56  56 100 E5        30.00R
WAUSAU         CLEAR     59  55  87 CALM      29.98S
WIS RAPIDS     FOG       55  53  93 CALM      29.99F VSB 1/2
MARSHFIELD     CLOUDY    60  56  86 CALM      29.98S
RICE LAKE      CLOUDY    61  57  88 CALM      29.99F
$$

...NORTHEAST IOWA...


CITY           SKY/WX    TMP DP  RH WIND       PRES   REMARKS
WATERLOO       CLOUDY    65  62  90 SE5       29.88F
DUBUQUE        CLEAR     63  60  90 CALM      29.94F
DECORAH        CLOUDY    66  61  82 SE6       29.92F HAZE
MASON CITY     PTCLDY    61  59  93 SE3       29.88F
CHARLES CITY   PTCLDY    63  61  94 E6        29.91F
OELWEIN        CLOUDY    64  63  94 SE7       29.93S
$$

...ELSEWHERE IN IOWA...


CITY           SKY/WX    TMP DP  RH WIND       PRES   REMARKS
DES MOINES     CLOUDY    67  63  87 SE7       29.85R
IOWA CITY      MOCLDY    63  61  93 SE3       29.90F
FORT DODGE     CLOUDY    64  59  82 E7        29.83F
MARSHALLTOWN   CLOUDY    63  62  97 E7        29.86F
CEDAR RAPIDS   CLOUDY    63  63 100 SE5       29.89F
$$

...NORTHERN ILLINOIS...


CITY           SKY/WX    TMP DP  RH WIND       PRES   REMARKS
CHICAGO-OHARE  MOCLDY    70  61  73 SW7       29.99R
CHICAGO-MIDWAY MOCLDY    71  59  65 SW7       29.99S
MOLINE         CLOUDY    64  59  83 E7        29.92F
ROCKFORD       PTCLDY    67  60  78 S5        29.98F
PEORIA         CLEAR     66  60  81 S6        29.96F
$$

NOTE: "FAIR" INDICATES FEW OR NO CLOUDS BELOW 12,000 FEET WITH NO
SIGNIFICANT WEATHER AND/OR OBSTRUCTIONS TO VISIBILITY. WIND
SPEEDS ARE IN MILES-PER-HOUR.




USA.gov is the U.S. government's official web portal to all federal, state and local government web resources and services.